| time (UTC) | temp F | wind direction | speed knots | gust knots | rain 1hr in | rain 24hr in | rain mn in | humidity % | barometer mb |
| 20260507003013 | 70 | 349 | 8.7 | 16.5 | 0.00 | 0.00 | 0.00 | 75 | 1010.6 |
| 20260507001510 | 72 | 21 | 7.0 | 16.5 | 0.00 | 0.00 | 0.00 | 74 | 1010.4 |
| 20260507000006 | 73 | 20 | 7.0 | 16.5 | 0.00 | 0.00 | 0.00 | 74 | 1010.0 |
| 20260506234502 | 74 | 27 | 7.8 | 13.9 | 0.00 | 0.00 | 0.00 | 73 | 1009.9 |
| 20260506233124 | 75 | 38 | 7.8 | 14.8 | 0.00 | 0.00 | 0.00 | 73 | 1009.7 |
| 20260506231559 | 77 | 12 | 7.0 | 18.2 | 0.00 | 0.00 | 0.00 | 73 | 1009.4 |
| 20260506230057 | 78 | 43 | 11.3 | 20.9 | 0.00 | 0.00 | 0.00 | 72 | 1009.2 |
| 20260506224557 | 79 | 36 | 9.6 | 19.1 | 0.00 | 0.00 | 0.00 | 73 | 1008.9 |
| 20260506223100 | 80 | 28 | 7.0 | 19.1 | 0.00 | 0.00 | 0.00 | 74 | 1008.6 |
| 20260506221558 | 82 | 61 | 7.0 | 14.8 | 0.00 | 0.00 | 0.00 | 74 | 1008.5 |
| 20260506220054 | 83 | 360 | 7.0 | 13.9 | 0.00 | 0.00 | 0.00 | 74 | 1008.5 |
| 20260506214553 | 83 | 53 | 6.1 | 12.2 | 0.00 | 0.00 | 0.00 | 75 | 1008.5 |
| 20260506213110 | 83 | 34 | 6.1 | 12.2 | 0.00 | 0.00 | 0.00 | 75 | 1008.3 |
| 20260506211551 | 83 | 57 | 6.1 | 11.3 | 0.00 | 0.00 | 0.00 | 76 | 1008.4 |
| 20260506210055 | 83 | 32 | 4.3 | 10.4 | 0.00 | 0.00 | 0.00 | 76 | 1008.6 |
| 20260506204552 | 84 | 39 | 7.0 | 11.3 | 0.00 | 0.00 | 0.00 | 74 | 1008.7 |
| 20260506203050 | 85 | 17 | 2.6 | 8.7 | 0.00 | 0.00 | 0.00 | 73 | 1008.6 |
| 20260506201549 | 86 | 93 | 2.6 | 6.1 | 0.00 | 0.00 | 0.00 | 73 | 1008.6 |
| 20260506200047 | 85 | 146 | 0.9 | 3.5 | 0.00 | 0.00 | 0.00 | 74 | 1008.6 |
| 20260506194548 | 86 | 146 | 0.0 | 4.3 | 0.00 | 0.00 | 0.00 | 73 | 1008.7 |
| 20260506193048 | 86 | 115 | 1.7 | 3.5 | 0.00 | 0.00 | 0.00 | 71 | 1008.8 |
| 20260506191546 | 86 | 71 | 0.9 | 5.2 | 0.00 | 0.00 | 0.00 | 71 | 1008.9 |
| 20260506190044 | 87 | 49 | 0.9 | 6.1 | 0.00 | 0.00 | 0.00 | 74 | 1009.1 |
| 20260506184543 | 86 | 57 | 0.0 | 7.0 | 0.00 | 0.00 | 0.00 | 73 | 1009.1 |
| 20260506183041 | 85 | 111 | 0.9 | 7.0 | 0.00 | 0.00 | 0.00 | 75 | 1009.5 |
| 20260506181539 | 85 | 87 | 3.5 | 7.0 | 0.00 | 0.00 | 0.00 | 76 | 1009.6 |
| 20260506180045 | 85 | 134 | 2.6 | 7.0 | 0.00 | 0.00 | 0.00 | 77 | 1009.8 |
| 20260506174531 | 83 | 112 | 1.7 | 7.8 | 0.00 | 0.00 | 0.00 | 80 | 1009.9 |
| 20260506173028 | 82 | 71 | 2.6 | 7.8 | 0.00 | 0.00 | 0.00 | 84 | 1010.2 |
| 20260506171527 | 81 | 78 | 4.3 | 8.7 | 0.00 | 0.00 | 0.00 | 85 | 1010.3 |
| 20260506170023 | 81 | 76 | 2.6 | 7.0 | 0.00 | 0.00 | 0.00 | 86 | 1010.3 |
| 20260506164521 | 80 | 28 | 2.6 | 7.0 | 0.00 | 0.00 | 0.00 | 87 | 1010.3 |
| 20260506163034 | 79 | 5 | 2.6 | 6.1 | 0.00 | 0.00 | 0.00 | 87 | 1010.4 |
| 20260506161517 | 79 | 29 | 1.7 | 4.3 | 0.00 | 0.00 | 0.00 | 88 | 1010.4 |
| 20260506160019 | 78 | 88 | 0.9 | 3.5 | 0.00 | 0.00 | 0.00 | 88 | 1010.2 |
| 20260506154512 | 78 | 88 | 0.9 | 3.5 | 0.00 | 0.00 | 0.00 | 89 | 1009.9 |
| 20260506153010 | 78 | 88 | 0.9 | 3.5 | 0.00 | 0.00 | 0.00 | 89 | 1009.6 |
| 20260506151507 | 78 | 134 | 0.9 | 4.3 | 0.00 | 0.00 | 0.00 | 90 | 1009.4 |
| 20260506150005 | 77 | 136 | 2.6 | 6.1 | 0.00 | 0.00 | 0.00 | 91 | 1009.3 |
| 20260506144503 | 77 | 148 | 2.6 | 7.8 | 0.00 | 0.00 | 0.00 | 92 | 1009.1 |
| 20260506143002 | 76 | 142 | 1.7 | 6.1 | 0.00 | 0.00 | 0.00 | 93 | 1008.9 |
| 20260506141600 | 76 | 136 | 3.5 | 7.8 | 0.00 | 0.00 | 0.00 | 93 | 1008.9 |
| 20260506140100 | 76 | 136 | 2.6 | 7.0 | 0.00 | 0.00 | 0.00 | 94 | 1008.5 |
| 20260506134557 | 75 | 149 | 6.1 | 8.7 | 0.00 | 0.00 | 0.00 | 94 | 1008.2 |
| 20260506133056 | 75 | 138 | 2.6 | 7.8 | 0.00 | 0.00 | 0.00 | 94 | 1008.3 |
| 20260506131555 | 75 | 130 | 4.3 | 8.7 | 0.00 | 0.00 | 0.00 | 94 | 1008.2 |
| 20260506130053 | 75 | 144 | 3.5 | 7.8 | 0.00 | 0.00 | 0.00 | 95 | 1008.1 |
| 20260506124553 | 75 | 129 | 0.0 | 3.5 | 0.00 | 0.00 | 0.00 | 95 | 1008.2 |
| 20260506123052 | 74 | 128 | 1.7 | 4.3 | 0.00 | 0.00 | 0.00 | 94 | 1008.0 |
| 20260506121551 | 74 | 130 | 0.9 | 4.3 | 0.00 | 0.00 | 0.00 | 94 | 1007.9 |
| 20260506120057 | 74 | 135 | 2.6 | 4.3 | 0.00 | 0.00 | 0.00 | 94 | 1007.8 |
| 20260506114557 | 74 | 142 | 3.5 | 6.1 | 0.00 | 0.00 | 0.00 | 93 | 1007.8 |
| 20260506113048 | 74 | 144 | 1.7 | 3.5 | 0.00 | 0.00 | 0.00 | 93 | 1007.9 |
| 20260506111548 | 74 | 144 | 1.7 | 4.3 | 0.00 | 0.00 | 0.00 | 92 | 1007.8 |
| 20260506110054 | 74 | 147 | 2.6 | 7.0 | 0.00 | 0.00 | 0.00 | 92 | 1007.7 |
| 20260506104544 | 75 | 140 | 2.6 | 7.0 | 0.00 | 0.00 | 0.00 | 92 | 1007.6 |
| 20260506103042 | 75 | 167 | 2.6 | 7.0 | 0.00 | 0.00 | 0.00 | 91 | 1007.4 |
| 20260506101543 | 75 | 153 | 2.6 | 7.8 | 0.00 | 0.00 | 0.00 | 91 | 1007.5 |
| 20260506100041 | 76 | 150 | 3.5 | 8.7 | 0.00 | 0.00 | 0.00 | 91 | 1007.5 |
| 20260506094549 | 76 | 148 | 4.3 | 7.8 | 0.00 | 0.00 | 0.00 | 91 | 1007.3 |
| 20260506093037 | 76 | 176 | 3.5 | 8.7 | 0.00 | 0.00 | 0.00 | 91 | 1007.3 |
| 20260506091536 | 76 | 162 | 5.2 | 10.4 | 0.00 | 0.00 | 0.00 | 91 | 1007.3 |
| 20260506090034 | 76 | 167 | 4.3 | 8.7 | 0.00 | 0.00 | 0.00 | 90 | 1007.6 |
| 20260506084534 | 76 | 155 | 4.3 | 7.8 | 0.00 | 0.00 | 0.00 | 90 | 1007.7 |
| 20260506083033 | 76 | 173 | 5.2 | 9.6 | 0.00 | 0.00 | 0.00 | 89 | 1007.5 |
| 20260506081532 | 76 | 188 | 3.5 | 9.6 | 0.00 | 0.00 | 0.00 | 89 | 1007.5 |
| 20260506073028 | 77 | 150 | 5.2 | 8.7 | 0.00 | 0.00 | 0.00 | 88 | 1007.9 |
| 20260506071531 | 77 | 162 | 3.5 | 9.6 | 0.00 | 0.00 | 0.00 | 87 | 1007.9 |
| 20260506061531 | 77 | 146 | 8.7 | 12.2 | 0.00 | 0.00 | 0.00 | 88 | 1008.1 |
| 20260506044513 | 77 | 140 | 9.6 | 13.9 | 0.00 | 0.00 | 0.00 | 88 | 1008.1 |
| 20260506043013 | 77 | 123 | 6.1 | 11.3 | 0.00 | 0.00 | 0.00 | 88 | 1008.0 |
| 20260506041517 | 77 | 145 | 7.8 | 13.0 | 0.00 | 0.00 | 0.00 | 88 | 1007.9 |
| 20260506040033 | 78 | 152 | 10.4 | 13.9 | 0.00 | 0.00 | 0.00 | 87 | 1007.5 |
| 20260506034511 | 78 | 148 | 7.0 | 13.9 | 0.00 | 0.00 | 0.00 | 87 | 1007.5 |
| 20260506033011 | 78 | 128 | 8.7 | 12.2 | 0.00 | 0.00 | 0.00 | 87 | 1007.5 |
| 20260506031524 | 78 | 120 | 7.0 | 12.2 | 0.00 | 0.00 | 0.00 | 86 | 1007.4 |
| 20260506030009 | 79 | 155 | 7.0 | 12.2 | 0.00 | 0.00 | 0.00 | 85 | 1007.1 |
| 20260506024516 | 79 | 143 | 10.4 | 13.9 | 0.00 | 0.00 | 0.00 | 84 | 1007.0 |
| 20260506023010 | 80 | 154 | 8.7 | 13.0 | 0.00 | 0.00 | 0.00 | 84 | 1006.8 |
| 20260506021509 | 80 | 132 | 9.6 | 13.9 | 0.00 | 0.00 | 0.00 | 83 | 1006.3 |
| 20260506020006 | 81 | 144 | 10.4 | 13.9 | 0.00 | 0.00 | 0.00 | 82 | 1006.2 |
| 20260506014510 | 81 | 360 | 8.7 | 12.2 | 0.00 | 0.00 | 0.00 | 81 | 1006.2 |
| 20260506013004 | 82 | 140 | 8.7 | 13.0 | 0.00 | 0.00 | 0.00 | 81 | 1006.0 |
| 20260506011504 | 82 | 134 | 7.8 | 11.3 | 0.00 | 0.00 | 0.00 | 80 | 1005.7 |
| 20260506010008 | 83 | 123 | 7.8 | 11.3 | 0.00 | 0.00 | 0.00 | 79 | 1005.4 |
| 20260506004506 | 83 | 137 | 5.2 | 10.4 | 0.00 | 0.00 | 0.00 | 77 | 1005.2 |